Location: Cie?lin
(50.3718°N, 19.6292°E)
Time: 13:28:52
(UTC+00:00)

Daily predictions for brighter satellites

Satellite Brightness Start Highest point End
(mag) Time Altitude Azimuth Time Altitude Azimuth Time Altitude Azimuth
Cosmos 2034 Rocket 4.4 15:06:50 10° NNW 15:13:02 72° W 15:19:09 10° S
Cosmos 1606 Rocket 3.7 15:10:47 10° S 15:15:11 62° E 15:19:34 10° NNE
SMAP 3.6 15:11:47 10° SE 15:16:04 38° ENE 15:20:22 10° N
Cosmos 1726 Rocket 3.8 15:13:05 10° SSE 15:17:22 50° E 15:21:40 10° NNE
USA 306 1.6 15:17:23 10° WNW 15:19:37 45° NNE 15:21:44 10° E
ATLAS 5 CENTAUR R/B 4.3 15:15:27 10° WNW 15:20:05 33° WSW 15:25:37 10° S
Cosmos 1500 3.9 15:20:51 10° N 15:23:59 28° ENE 15:27:04 10° SE
Tsikada Rocket 4.0 15:18:01 10° S 15:24:15 82° E 15:30:28 10° NNE
Cosmos 1825 Rocket 3.7 15:20:25 10° NNW 15:24:45 82° W 15:29:03 10° S
Cosmos 2263 Rocket 3.2 15:20:52 10° SSE 15:25:23 26° ESE 15:29:56 10° NE
Cosmos 1437 Rocket 2.8 15:23:41 10° N 15:27:18 48° ENE 15:30:56 10° SSE
Cosmos 2227 Rocket 2.2 15:21:54 10° SSW 15:27:32 72° ESE 15:33:11 10° NNE
CZ-2D R/B 3.1 15:24:13 10° SSE 15:27:53 72° ENE 15:31:34 10° N
Cosmos 1869 3.9 15:24:12 10° SSW 15:27:55 56° WNW 15:31:39 10° N
SL-8 R/B 3.9 15:23:32 10° W 15:28:17 71° S 15:33:04 10° E
SJ-11-01 4.2 15:24:23 10° SSE 15:29:01 80° ENE 15:33:42 10° NNW
Cosmos 2298 Rocket 4.1 15:24:27 10° SSW 15:29:46 87° WNW 15:35:09 10° NNE
H-2A R/B 4.2 15:28:58 10° SSW 15:33:22 29° W 15:37:42 10° NW
Cosmos 2151 3.1 15:29:21 10° N 15:33:33 54° ENE 15:37:44 10° SSE
Cosmos 2228 4.4 15:30:12 10° SW 15:34:19 41° WNW 15:38:26 10° N
CORIOLIS 4.2 15:31:08 10° SSE 15:36:22 58° ENE 15:41:39 10° N
ATLAS 2AS CENTAUR R/B 3.6 15:30:49 10° NW 15:37:04 32° NNE 15:42:49 11° ENE
Cosmos 1238 Rocket 2.7 15:33:27 10° SSW 15:37:16 77° W 15:40:34 10° N
CZ-2C R/B 2.5 15:35:02 10° SSE 15:38:34 75° ENE 15:42:10 10° N
Cosmos 2251 Rocket 4.5 15:35:02 10° N 15:39:34 27° NE 15:44:06 10° ESE
SL-16 R/B 3.9 15:34:02 10° N 15:39:40 36° WNW 15:45:17 10° WSW
Helios 1B rocket 2.7 15:38:33 10° S 15:42:28 70° WSW 15:46:25 10° NNW
YAOGAN 1 4.3 15:42:20 12° ENE 15:42:49 13° NE 15:44:41 10° NNE
CZ-4B R/B 4.0 15:39:27 10° SE 15:44:06 37° ENE 15:48:39 10° N
Cosmos 407 Rocket 4.4 15:40:12 10° N 15:44:34 27° NE 15:48:53 10° ESE
CZ-4B R/B 3.7 15:41:32 10° SSE 15:45:01 51° ENE 15:48:34 10° N
Cosmos 1812 4.2 15:44:27 10° SE 15:46:49 16° E 15:47:51 15° ENE
ARGOS 4.5 15:44:35 10° S 15:49:45 44° W 15:54:58 10° NNW
SL-16 R/B 2.4 15:44:15 10° NNW 15:49:56 76° WSW 15:55:35 10° SSE
USA 305 2.7 15:50:30 10° WNW 15:54:16 60° NNE 15:57:19 15° E
Lacrosse 4 Rocket 2.1 15:50:16 10° NNW 15:54:17 34° NE 15:58:13 10° ESE
Meteor 1-31 Rocket 2.6 15:51:22 10° SSE 15:55:02 67° ENE 15:58:44 10° N
Cosmos 2344 4.4 15:55:40 10° SSE 16:01:53 28° ESE 16:06:06 17° ENE
Cosmos 1943 3.3 15:58:28 10° NNW 16:03:58 51° NE 16:09:28 10° SE
Cosmos 1544 3.3 16:01:06 10° NNW 16:04:20 62° W 16:07:33 10° S
Radarsat Rocket 4.1 15:59:00 10° SE 16:04:32 48° ENE 16:10:21 10° N
Cosmos 1607 4.0 15:58:17 10° SSW 16:04:35 73° SE 16:10:12 14° NE
Cosmos 1269 Rocket 4.3 16:00:32 10° NNW 16:05:49 72° WSW 16:11:04 10° SSE
Cosmos 1076 Rocket 3.6 16:04:52 10° NNW 16:09:15 81° W 16:13:35 10° S
BREEZE-M DEB (TANK) 3.5 16:06:22 10° WSW 16:09:59 85° SSE 16:19:22 18° ENE
Cosmos 1812 Rocket 4.3 16:09:25 10° SSE 16:13:11 30° E 16:15:10 21° NE
SL-08 R/B 4.3 16:15:08 23° ENE 16:15:57 24° E 16:19:41 10° SSE
Cosmos 2297 Rocket 3.5 16:10:51 10° WSW 16:16:04 37° NW 16:21:19 10° NNE
Cosmos 2219 3.3 16:12:06 10° SSW 16:17:43 79° WNW 16:23:08 11° NNE
ADEOS 3.9 16:13:03 10° SE 16:17:53 40° ENE 16:22:45 10° N
Cosmos 44 3.9 16:14:09 10° NW 16:19:31 65° SW 16:24:38 10° SSE
USA 234 3.4 16:16:20 20° ENE 16:21:03 60° SE 16:27:29 10° SW
DMSP B5D2-2 4.3 16:16:18 10° NNE 16:21:31 74° WNW 16:26:42 10° SSW
Cosmos 1602 3.5 16:19:28 10° N 16:23:12 83° E 16:26:56 10° SSE
Meteor 1-25 Rocket 4.3 16:17:54 10° N 16:23:30 53° ENE 16:28:58 10° SSE
Cosmos 1023 Rocket 4.4 16:18:44 10° NNW 16:23:54 65° ENE 16:28:59 10° SE
Cosmos 1666 2.8 16:24:28 10° NNW 16:28:00 69° W 16:31:30 10° S
USA 307 2.6 16:25:30 10° WNW 16:29:23 81° SSW 16:31:19 28° ESE
ISS -2.6 16:30:20 10° W 16:33:31 42° SSW 16:35:28 20° SSE
Cosmos 2082 3.6 16:29:25 10° SSW 16:35:03 89° WNW 16:39:27 17° NNE
COSMO-SKYMED 1 2.8 16:34:41 28° NE 16:36:38 47° E 16:40:49 10° S
Cosmos 2026 Rocket 4.3 16:32:27 10° SSE 16:38:15 42° E 16:44:09 10° NNE
ATLAS CENTAUR R/B 2.8 16:35:41 10° WNW 16:39:52 77° SW 16:48:06 10° SE
Cosmos 2058 Rocket 4.1 16:35:36 10° SSW 16:39:53 47° WNW 16:44:11 10° N
Cosmos 1833 Rocket 4.3 16:37:39 10° N 16:40:51 16° NNE 16:40:51 16° NNE
Lacrosse 5 3.6 16:43:17 10° SSE 16:45:42 17° SE 16:45:42 17° SE
Helios 1A 2.9 16:44:13 19° NNE 16:47:13 90° WNW 16:51:22 10° SSW
CBERS 1 LM4 rocket 4.4 16:44:26 10° SSE 16:49:15 82° WSW 16:54:02 10° NNW
Cosmos 1140 Rocket 3.4 16:44:58 10° NNW 16:50:12 85° WSW 16:55:21 10° SSE
Cosmos 1092 Rocket 4.0 16:45:28 10° SSE 16:51:23 53° E 16:57:19 10° NNE
USA 306 4.1 16:52:54 10° W 16:54:02 20° WSW 16:54:02 20° WSW
Nadezhda 4 Rocket 3.9 16:48:42 10° S 16:54:52 86° W 17:01:02 10° N
CZ-4B R/B 3.1 16:58:57 54° NE 16:58:57 54° NE 17:02:43 10° N
CZ-4B R/B 4.2 17:00:48 29° NNE 17:00:48 29° NNE 17:04:16 10° N
Meteor 1-20 Rocket 4.4 16:53:49 10° NNW 16:59:21 74° W 17:04:58 10° S
Cosmos-2242 3.1 16:57:52 10° SSW 17:02:13 74° WNW 17:05:03 21° N
Meteor 1-5 Rocket 4.2 16:59:45 10° N 17:05:18 58° ENE 17:11:01 10° SSE
Cosmos 2227 4.2 17:00:51 10° SSW 17:06:33 65° ESE 17:08:10 46° NE
NOAA 6 4.5 17:01:49 10° S 17:06:54 63° WSW 17:12:00 10° NNW
Cosmos 2263 Rocket 2.6 17:03:25 10° SW 17:08:54 61° WNW 17:12:14 24° NNE
Cosmos 1844 Rocket 3.5 17:05:20 10° S 17:08:55 31° SE 17:08:55 31° SE
Cosmos 2082 Rocket 4.3 17:09:03 10° N 17:10:23 12° NNE 17:10:23 12° NNE
RESURS DK-1 4.3 17:07:50 10° NNW 17:09:16 19° N 17:09:16 19° N
Cosmos 2227 Rocket 3.9 17:07:20 10° W 17:12:08 27° NW 17:16:16 13° N
EO 1 Delta rocket 4.4 17:06:03 10° SSE 17:13:00 74° ENE 17:18:28 10° N
Cosmos 1428 Rocket 4.5 17:11:30 10° S 17:17:49 87° W 17:24:10 10° N
YAOGAN 1 3.1 17:19:24 46° N 17:19:24 46° N 17:22:28 10° NNW
Cosmos 1603 3.9 17:15:08 10° NNW 17:20:49 70° WSW 17:26:12 11° SSE
Cosmos 1812 3.7 17:18:06 10° SSW 17:21:37 43° WNW 17:22:20 38° NW
Cosmos 2251 Rocket 4.0 17:16:58 10° NNW 17:22:14 61° WSW 17:27:30 10° S
SKYMED 2 4.0 17:23:18 38° N 17:24:44 60° WNW 17:29:01 10° SSW
Cosmos 1627 Rocket 4.4 17:19:44 10° S 17:26:01 87° E 17:32:25 10° N
Cosmos 407 Rocket 4.0 17:21:49 10° NNW 17:26:54 58° WSW 17:31:55 10° S
USA 305 3.8 17:25:27 10° WNW 17:28:38 40° WSW 17:28:38 40° WSW
ATLAS 2AS CENTAUR R/B 2.6 17:22:12 10° NW 17:29:11 70° NE 17:30:17 60° E
Lacrosse 4 Rocket 2.8 17:28:43 10° NW 17:32:45 38° WSW 17:34:32 25° SSW
Cosmos 1782 4.5 17:35:43 10° SSW 17:37:39 27° SW 17:37:39 27° SW
Cosmos 1954 Rocket 4.3 17:34:43 10° NNW 17:38:57 57° NNW 17:38:57 57° NNW
Cosmos 1818 3.7 17:35:51 10° SSW 17:40:24 61° S 17:40:24 61° S
Timation 2 Rocket 4.5 17:41:06 10° SSW 17:45:09 43° S 17:45:09 43° S
SL-08 R/B 4.1 17:54:03 47° WNW 17:54:03 47° WNW 17:58:21 10° SW
ADEOS Rocket 4.4 18:05:29 23° N 18:05:29 23° N 18:07:35 10° N
USA 234 3.3 18:03:40 64° N 18:04:08 66° NNW 18:10:37 10° W
Cosmos 1553 Rocket 4.2 18:02:57 10° NNW 18:09:15 67° W 18:10:28 55° SSW
Cosmos 2344 3.5 18:08:02 10° SW 18:15:27 73° NW 18:16:07 68° N
Lacrosse 5 4.2 18:23:46 10° SW 18:24:56 17° SW 18:24:56 17° SW
Cosmos 2263 Rocket 4.5 18:50:24 10° WNW 18:53:56 17° NW 18:53:56 17° NW
ATLAS 2AS CENTAUR R/B 4.3 19:13:40 10° NW 19:17:44 28° W 19:17:44 28° W
